[[{"header":{"parameterUnit":"m.s-1","parameterCategory":1,"la1":30.2992,"la2":30.254,"lo1":-89.0895,"lo2":-89.0443,"dy":0.0025,"dx":0.0025,"nx":19,"ny":19,"refTime":"2026-04-15T21:00:00:Z","depth":0,"parameterNumber":2,"parameterNumberName":"U-component_of_WINDS"},"data":[0,0,0,-0.9765,-0.9765,-0.9742,-0.9742,-0.9722,-0.9721,0,0,0,0,0,0,0,0,0,0,0,-0.9776,-0.9776,-0.9765,-0.9765,-0.9742,-0.9742,-0.9722,-0.9721,0,0,0,0,0,0,0,0,0,0,0,-0.9776,-0.9776,-0.9776,-0.9765,-0.9742,-0.9742,-0.9722,-0.9736,0,0,0,0,0,0,0,0,0,0,-0.9756,-0.977,-0.9776,-0.9776,-0.9764,-0.9742,-0.9742,-0.9736,-0.9735,-0.9735,0,-0.9735,0,-0.9728,-0.972,-0.972,0,0,0,-0.9762,-0.9771,-0.9761,-0.9776,-0.9764,-0.9742,-0.9752,-0.9735,-0.9734,-0.9733,-0.9735,-0.9734,-0.9728,-0.972,-0.972,-0.9729,-0.9729,0,0,-0.9763,-0.9774,-0.9762,-0.9761,-0.9764,-0.9752,-0.9751,-0.9734,-0.9737,-0.9735,-0.9733,-0.9727,-0.972,-0.972,-0.9728,-0.9729,0,0,0,-0.9768,-0.9775,-0.9765,-0.9762,-0.9757,-0.9752,-0.975,-0.9738,-0.9734,-0.9733,-0.9727,-0.972,-0.972,-0.9728,-0.9728,-0.9747,0,0,0,-0.9769,-0.9778,-0.9766,-0.9773,-0.9757,-0.9747,-0.9755,-0.9735,-0.9733,-0.9727,-0.972,-0.972,-0.9728,-0.9728,-0.9747,-0.9755,0,0,0,-0.9776,-0.9779,-0.9777,-0.9774,-0.9764,-0.9747,-0.9742,-0.9734,-0.973,-0.972,-0.972,-0.9728,-0.9728,-0.9746,-0.9753,-0.976,0,0,0,-0.9787,-0.9795,-0.9778,-0.9785,-0.9765,-0.9759,-0.9742,-0.9738,-0.9732,-0.972,-0.9728,-0.9728,-0.9745,-0.9752,-0.9759,-0.9767,-0.9771,0,0,-0.9803,-0.9797,-0.9801,-0.9785,-0.9785,-0.9762,-0.9765,-0.975,-0.9739,-0.9733,-0.9733,-0.9747,-0.9753,-0.9759,-0.9793,-0.9797,0,0,0,-0.981,-0.9812,-0.981,-0.9805,-0.9793,-0.9784,-0.9767,-0.9761,-0.9755,-0.9738,-0.9751,-0.9754,-0.9758,-0.9761,-0.9764,-0.9766,-0.9731,-0.973,-0.973,-0.985,-0.9835,-0.984,-0.9822,-0.9818,-0.98,-0.9795,-0.9785,-0.9772,-0.9775,-0.9773,-0.9795,-0.9799,-0.9802,-0.9804,-0.9777,-0.9777,-0.9777,-0.9777,-0.9873,-0.9874,-0.9856,-0.9854,-0.9839,-0.9837,-0.9821,-0.9812,-0.9808,-0.9796,-0.9798,-0.9785,-0.9806,-0.9807,-0.9778,-0.9778,-0.9778,-0.9777,-0.9777,-0.9897,-0.9895,-0.9888,-0.9879,-0.9874,-0.9856,-0.9854,-0.984,-0.9828,-0.983,-0.9826,-0.9826,-0.9823,-0.9829,-0.9829,-0.9829,-0.9829,-0.9829,-0.9829,-0.9925,-0.9916,-0.9915,-0.9903,-0.9898,-0.989,-0.9872,-0.9867,-0.9858,-0.9848,-0.9848,-0.9835,-0.9811,-0.9805,-0.9831,-0.983,-0.983,-0.983,-0.983,-0.9953,-0.9944,-0.9942,-0.9937,-0.9922,-0.9918,-0.9901,-0.9892,-0.9886,-0.9885,-0.9871,-0.9856,-0.9849,-0.9846,-0.9841,-0.9875,-0.9875,-0.9875,-0.9875,-0.9973,-0.9968,-0.9963,-0.9955,-0.9947,-0.9931,-0.993,-0.9917,-0.9902,-0.9898,-0.9891,-0.9884,-0.9882,-0.9876,-0.9872,-0.9867,-0.9907,-0.9907,-0.9907,-0.9989,-0.9982,-0.9984,-0.9968,-0.9956,-0.9945,-0.9944,-0.9937,-0.9919,-0.9908,-0.9894,-0.9893,-0.988,-0.9877,-0.9865,-0.986,-0.9851,0,0]},{"header":{"parameterUnit":"m.s-1","parameterCategory":1,"la1":30.2992,"la2":30.254,"lo1":-89.0895,"lo2":-89.0443,"dy":0.0025,"dx":0.0025,"nx":19,"ny":19,"refTime":"2026-04-15T21:00:00:Z","depth":0,"parameterNumber":3,"parameterNumberName":"V-component_of_WINDS"},"data":[0,0,0,3.6218,3.6218,3.6165,3.6165,3.6115,3.6114,0,0,0,0,0,0,0,0,0,0,0,3.6246,3.6246,3.6219,3.6218,3.6165,3.6165,3.6115,3.6114,0,0,0,0,0,0,0,0,0,0,0,3.6246,3.6246,3.6246,3.6217,3.6165,3.6165,3.6115,3.6148,0,0,0,0,0,0,0,0,0,0,3.6196,3.6233,3.6246,3.6246,3.6217,3.6165,3.6165,3.6149,3.6146,3.6146,0,3.6151,0,3.6132,3.6112,3.6112,0,0,0,3.6208,3.6236,3.6211,3.6246,3.6217,3.6166,3.6186,3.6147,3.6143,3.6142,3.615,3.6148,3.6132,3.6112,3.6112,3.6151,3.6152,0,0,3.6211,3.6242,3.6214,3.621,3.6221,3.6188,3.6185,3.6144,3.6155,3.615,3.6146,3.6131,3.6112,3.6112,3.6151,3.6151,0,0,0,3.6226,3.6245,3.6221,3.6212,3.6202,3.6187,3.6183,3.6157,3.6146,3.6146,3.613,3.6112,3.6111,3.615,3.6151,3.6214,0,0,0,3.6227,3.6253,3.6222,3.6241,3.6203,3.6179,3.6197,3.6149,3.6144,3.613,3.6112,3.6111,3.6149,3.615,3.6211,3.6238,0,0,0,3.6245,3.6255,3.6252,3.6243,3.6222,3.6179,3.6166,3.6147,3.6135,3.6112,3.6111,3.6149,3.615,3.6208,3.6233,3.6259,0,0,0,3.6273,3.6307,3.6253,3.6285,3.6222,3.6219,3.6166,3.6161,3.6149,3.6112,3.6149,3.6151,3.6207,3.623,3.6256,3.6287,3.6303,0,0,3.6333,3.6315,3.6331,3.6282,3.6297,3.6224,3.6247,3.6205,3.6173,3.616,3.616,3.6212,3.6233,3.6258,3.6379,3.6391,0,0,0,3.6361,3.6373,3.637,3.6362,3.6332,3.6309,3.6261,3.6246,3.6234,3.6173,3.6227,3.6238,3.6252,3.6265,3.6276,3.6286,3.6158,3.6158,3.6158,3.649,3.6449,3.6474,3.6428,3.642,3.6372,3.6362,3.6332,3.6291,3.6305,3.6301,3.6379,3.6396,3.6403,3.6414,3.6313,3.6313,3.6314,3.6314,3.6574,3.6586,3.6534,3.6539,3.6496,3.6499,3.6453,3.6425,3.6421,3.6378,3.6388,3.6345,3.6419,3.6426,3.6318,3.6317,3.6317,3.6316,3.6316,3.6655,3.6653,3.6636,3.6621,3.6614,3.6565,3.6565,3.6525,3.6486,3.6496,3.6488,3.6487,3.6481,3.6495,3.6496,3.6496,3.6496,3.6496,3.6496,3.6745,3.6724,3.6729,3.6703,3.6694,3.6676,3.6629,3.6617,3.6594,3.6565,3.6564,3.6523,3.6434,3.6413,3.65,3.65,3.6499,3.6499,3.6499,3.6847,3.6818,3.6827,3.6818,3.6784,3.6781,3.673,3.6711,3.6696,3.6697,3.6654,3.6595,3.6572,3.6563,3.6546,3.6662,3.6662,3.6662,3.6662,3.6915,3.6901,3.6902,3.689,3.6874,3.683,3.6841,3.6805,3.6763,3.6751,3.6728,3.6701,3.6693,3.6676,3.6664,3.6647,3.6787,3.6787,3.6787,3.6976,3.6958,3.6976,3.6937,3.6908,3.6884,3.6894,3.6881,3.6827,3.6791,3.6741,3.6735,3.6691,3.6679,3.6642,3.6625,3.6592,0,0]}]]